Regional Weather Roundup
Issued by NWS

Home | Current Version | Previous Version | Text Only | Print | Product List | Glossary Off
Versions: 1 2 3 4 5 6 7 8 9 10 11 12 13 14 15 16 17 18 19 20 21 22 23 24 25 26 27

000
ASUS45 KCYS 181010
RWRWY

WYOMING REGIONAL WEATHER ROUNDUP
NATIONAL WEATHER SERVICE CHEYENNE WY
300 AM MST MON DEC 18 2017

NOTE:  "FAIR" INDICATES FEW OR NO CLOUDS BELOW 12,000 FEET
WITH NO SIGNIFICANT WEATHER AND/OR OBSTRUCTIONS TO VISIBILITY.

WYZ001-181100-
YELLOWSTONE NATIONAL PARK

CITY           SKY/WX    TMP DP  RH WIND       PRES   REMARKS
LK YELLOWSTONE   N/A     14  11  87 CALM      30.09R
W YELLOWSTONE  NOT AVBL

$$
WYZ002>013-054>058-071-098>099-181100-
NORTHERN WYOMING

CITY           SKY/WX    TMP DP  RH WIND       PRES   REMARKS
JACKSON        FLURRIES  23  16  74 S14       30.14R WCI  11
CODY           FAIR      36  19  50 W21G36    29.84F WCI  25
GREYBULL       FAIR      11  10  96 SE7       29.93S WCI   0
WORLAND        FAIR       6   4  91 CALM      29.94R
SHERIDAN       FAIR      14  12  92 S10       29.75F WCI   1
BUFFALO        FAIR      30  15  53 SW10      29.78F WCI  21
GILLETTE       FAIR      31  19  61 SW16      29.79F WCI  20
HULETT         FAIR      32  18  55 SW10      29.80F WCI  24
NEWCASTLE      FAIR      19  14  79 E5        29.87F WCI  13

$$
WYZ014>020-022>026-101>103-181100-
CENTRAL WYOMING

CITY           SKY/WX    TMP DP  RH WIND       PRES   REMARKS
BIG PINEY      FAIR      17  12  80 CALM      30.10S
PINEDALE       CLOUDY    21  14  73 NW8       30.11S WCI  12
DUBOIS         CLOUDY    23  14  68 N26G37    29.95S WCI   6
LANDER         FAIR      21  14  74 CALM      29.93R
RIVERTON       FAIR      13  11  92 CALM      29.93S
CASPER         FLURRIES  28  18  66 SW30G41   29.90F WCI  12
DOUGLAS        FAIR      34  20  56 W15       29.87F WCI  24

$$
WYZ021-027>030-104>119-181100-
SOUTHERN WYOMING

CITY           SKY/WX    TMP DP  RH WIND       PRES   REMARKS
EVANSTON       FAIR      19  13  77 SW14      30.16S WCI   6
FORT BRIDGER   CLOUDY    26  11  53 W16       30.16S WCI  14
ROCK SPRINGS   FAIR      21  10  62 SW22      30.09  WCI   5
DIXON          FAIR      17  13  84 CALM      30.18S
RAWLINS        FAIR      24  13  62 CALM      30.07S
LARAMIE        FAIR      25  16  68 SW18      29.99R WCI  11
CHEYENNE       FAIR      29  15  56 W8        29.94R WCI  21
TORRINGTON     FAIR      35  17  47 W9        29.89F WCI  28
PINE BLUFFS    FAIR      16  14  93 S3        29.95F

$$




USA.gov is the U.S. government's official web portal to all federal, state and local government web resources and services.